Hourly Data Report for August 19, 2009

All times are specified in Local Standard Time (LST). Add 1 hour to adjust for Daylight Saving Time where and when it is observed.

EMERSON AUT
MANITOBA

49°00'00.000" N
97°14'15.000" W
242.00 m
5020882
71560
WEX

Download Data

Hourly Data (August 2009)
Hourly Data Report for August 19, 2009
Temp Definition
°C
Dew Point Temp Definition
°C
Rel Hum Definition
%
Wind Dir Definition
10's deg

Wind Spd Definition
km/h
Visibility Definition
km
Stn Press Definition
kPa
Hmdx Definition


Wind Chill Definition


Weather Definition


TIME
00:00 14.7 11.4 81 14 13   97.55     LegendNANA
01:00 13.8 11.4 85 14 13   97.50     LegendNANA
02:00 14.9 11.7 81 16 17   97.46     LegendNANA
03:00 14.9 11.8 82 18 15   97.44     LegendNANA
04:00 14.7 12.0 84 17 13   97.41     LegendNANA
05:00 15.3 12.5 83 17 19   97.37     LegendNANA
06:00 14.8 13.5 92 18 20   97.42     LegendNANA
07:00 14.9 13.8 93 20 20   97.40     LegendNANA
08:00 16.0 14.5 91 18 17   97.43     LegendNANA
09:00 16.0 14.6 91 17 11   97.35     LegendNANA
10:00 16.3 15.0 92 16 15   97.35     LegendNANA
11:00 18.5 15.7 84 16 15   97.31     LegendNANA
12:00 20.6 16.3 76 16 17   97.28 25   LegendNANA
13:00 22.2 16.6 71 17 15   97.23 27   LegendNANA
14:00 21.2 15.9 72 16 13   97.17 26   LegendNANA
15:00 16.0 14.7 92 24 6   97.20     LegendNANA
16:00 16.4 15.1 92 11 11   97.20     LegendNANA
17:00 16.7 14.8 89 3 9   97.21     LegendNANA
18:00 17.1 15.4 90 16 4   97.21     LegendNANA
19:00 16.9 15.7 93 3 7   97.25     LegendNANA
20:00 16.0 15.3 96 22 6   97.27     LegendNANA
21:00 15.0 14.6 97   0   97.22     LegendNANA
22:00 14.4 14.0 97 29 6   97.26     LegendNANA
23:00 14.7 14.4 98 4 6   97.30     LegendNANA

Notes on Data Quality.

Legend

  • E = Estimated
  • M = Missing
  • NA = Not Available
  • ‡ = Partner data that is not subject to review by the National Climate Archives
Date modified: